Weather History for Franklin, PA

Change the Weather History Date:

Friday, February 1, 2013

  Actual Average Record
Temperature  
Mean Temperature 12 °F -  
Max Temperature 17 °F 34 °F 62 °F (1988)
Min Temperature 8 °F 17 °F -18 °F (1948)
Degree Days  
Heating Degree Days 52    
Moisture  
Dew Point 5 °F    
Average Humidity 71    
Maximum Humidity 86    
Minimum Humidity 53    
Precipitation  
Precipitation 0.00 in - - ()
Sea Level Pressure  
Sea Level Pressure 30.03 in    
Wind  
Wind Speed 13 mph (WSW)    
Max Wind Speed 21 mph    
Max Gust Speed 31 mph    
Visibility 6 miles    
Events      
Averages and records for this station are not official NWS values.
T = Trace of Precipitation, MM = Missing Value Source: NWS Daily Summary

Daily Weather History Graph

Daily Weather History Graph

Search for Another Location

Airport:

Trip Planner

Search our weather history database for the weather conditions in past years. The results will help you decide how hot, cold, wet, or windy it might be!

Date:

Astronomy

Feb. 01, 2013 Rise Set
Actual Time 7:30 AM EST 5:36 PM EST
Civil Twilight 7:01 AM EST 6:05 PM EST
Nautical Twilight 6:28 AM EST 6:38 PM EST
Astronomical Twilight 5:55 AM EST 7:10 PM EST
Moon 11:46 PM EST (2/1) 9:58 AM EST (2/1)
Length of Visible Light 11h 03m
Length of Day
10h 05m
Waning Gibbous, 70% of the Moon is Illuminated
Feb 1
Waning Gibbous
Feb 3
Last Quarter
Feb 10
New
Feb 17
First Quarter
Feb 25
Full

Hourly Weather History & Observations

Time (EST) Temp. Windchill Dew Point Humidity Pressure Visibility Wind Dir Wind Speed Gust Speed Precip Events Conditions
12:15 AM 17.6 °F 2.7 °F 8.6 °F 68% 29.77 in 10.0 mi West 16.1 mph 24.2 mph N/A   Overcast
12:35 AM 15.8 °F 2.7 °F 6.8 °F 68% 29.76 in 10.0 mi West 11.5 mph - N/A   Mostly Cloudy
12:55 AM 15.8 °F 3.4 °F 6.8 °F 68% 29.76 in 10.0 mi West 10.4 mph 18.4 mph N/A   Mostly Cloudy
1:15 AM 15.8 °F 4.2 °F 6.8 °F 68% 29.76 in 10.0 mi West 9.2 mph - N/A   Mostly Cloudy
1:35 AM 15.8 °F 3.4 °F 5.0 °F 62% 29.76 in 10.0 mi WSW 10.4 mph - N/A   Mostly Cloudy
2:15 AM 15.8 °F 4.2 °F 6.8 °F 68% 29.77 in 10.0 mi WSW 9.2 mph - N/A   Partly Cloudy
2:35 AM 15.8 °F 3.4 °F 6.8 °F 68% 29.78 in 10.0 mi WSW 10.4 mph - N/A   Mostly Cloudy
2:55 AM 15.8 °F 3.4 °F 6.8 °F 68% 29.78 in 10.0 mi WSW 10.4 mph - N/A   Overcast
3:15 AM 15.8 °F 4.2 °F 6.8 °F 68% 29.79 in 9.0 mi WSW 9.2 mph 16.1 mph N/A   Overcast
3:35 AM 14.0 °F 2.9 °F 6.8 °F 73% 29.79 in 9.0 mi WSW 8.1 mph - N/A   Overcast
3:55 AM 14.0 °F 0.5 °F 8.6 °F 79% 29.79 in 5.0 mi WSW 11.5 mph - N/A   Overcast
4:15 AM 14.0 °F -1.4 °F 10.4 °F 86% 29.81 in 2.5 mi WSW 15.0 mph 23.0 mph N/A   Overcast
4:35 AM 14.0 °F 1.2 °F 8.6 °F 79% 29.82 in 1.5 mi WSW 10.4 mph - N/A   Overcast
4:55 AM 14.0 °F -0.2 °F 8.6 °F 79% 29.83 in 3.0 mi WSW 12.7 mph 21.9 mph N/A   Overcast
5:15 AM 14.0 °F 0.5 °F 8.6 °F 79% 29.84 in 1.5 mi WSW 11.5 mph 20.7 mph N/A   Overcast
5:35 AM 14.0 °F -0.2 °F 8.6 °F 79% 29.85 in 4.0 mi WSW 12.7 mph 18.4 mph N/A   Overcast
5:55 AM 14.0 °F 1.2 °F 8.6 °F 79% 29.87 in 3.0 mi WSW 10.4 mph - N/A   Overcast
6:15 AM 14.0 °F 0.5 °F 8.6 °F 79% 29.88 in 1.2 mi WSW 11.5 mph - N/A   Overcast
6:35 AM 14.0 °F 2.0 °F 8.6 °F 79% 29.90 in 1.2 mi WSW 9.2 mph 17.3 mph N/A   Overcast
7:15 AM 12.2 °F -1.0 °F 8.6 °F 85% 29.92 in 2.5 mi WSW 10.4 mph - N/A   Overcast
7:35 AM 12.2 °F -0.2 °F 8.6 °F 85% 29.94 in 1.5 mi WSW 9.2 mph - N/A   Overcast
7:55 AM 12.2 °F -3.1 °F 8.6 °F 85% 29.95 in 2.0 mi WSW 13.8 mph 21.9 mph N/A   Overcast
8:15 AM 12.2 °F -1.8 °F 6.8 °F 79% 29.96 in 2.5 mi WSW 11.5 mph 20.7 mph N/A   Overcast
8:35 AM 12.2 °F -0.2 °F 8.6 °F 85% 29.98 in 1.8 mi WSW 9.2 mph 16.1 mph N/A   Overcast
8:55 AM 12.2 °F -2.5 °F 8.6 °F 85% 29.99 in 1.0 mi WSW 12.7 mph 19.6 mph N/A   Overcast
9:15 AM 12.2 °F -2.5 °F 8.6 °F 85% 29.99 in 1.0 mi WSW 12.7 mph 20.7 mph N/A   Overcast
9:35 AM 12.2 °F -4.8 °F 6.8 °F 79% 30.00 in 1.5 mi WSW 17.3 mph 25.3 mph N/A   Overcast
9:55 AM 12.2 °F -4.3 °F 6.8 °F 79% 30.02 in 1.0 mi West 16.1 mph 23.0 mph N/A   Overcast
10:15 AM 12.2 °F -4.8 °F 6.8 °F 79% 30.03 in 1.0 mi West 17.3 mph 29.9 mph N/A   Overcast
10:35 AM 12.2 °F -5.3 °F 6.8 °F 79% 30.05 in 0.8 mi West 18.4 mph 28.8 mph N/A   Overcast
10:55 AM 12.2 °F -4.3 °F 6.8 °F 79% 30.06 in 1.0 mi WSW 16.1 mph 23.0 mph N/A   Overcast
11:15 AM 12.2 °F -4.8 °F 6.8 °F 79% 30.06 in 1.2 mi West 17.3 mph 25.3 mph N/A   Overcast
11:35 AM 14.0 °F -3.0 °F 6.8 °F 73% 30.06 in 2.0 mi West 18.4 mph - N/A   Overcast
11:55 AM 15.8 °F 0.9 °F 6.8 °F 68% 30.07 in 3.0 mi WSW 15.0 mph 24.2 mph N/A   Overcast
12:15 PM 15.8 °F -0.6 °F 6.8 °F 68% 30.08 in 2.5 mi West 18.4 mph 25.3 mph N/A   Mostly Cloudy
12:35 PM 15.8 °F -0.2 °F 8.6 °F 73% 30.08 in 2.5 mi WSW 17.3 mph 21.9 mph N/A   Overcast
12:55 PM 15.8 °F -1.5 °F 6.8 °F 68% 30.08 in 3.0 mi West 20.7 mph 26.5 mph N/A   Overcast
1:15 PM 15.8 °F -0.6 °F 8.6 °F 73% 30.09 in 2.0 mi West 18.4 mph 28.8 mph N/A   Overcast
1:35 PM 15.8 °F -0.2 °F 8.6 °F 73% 30.09 in 1.2 mi West 17.3 mph 27.6 mph N/A   Overcast
1:55 PM 15.8 °F 0.3 °F 6.8 °F 68% 30.09 in 5.0 mi West 16.1 mph 25.3 mph N/A   Overcast
2:15 PM 15.8 °F 2.1 °F 5.0 °F 62% 30.10 in 4.0 mi West 12.7 mph 31.1 mph N/A   Overcast
2:35 PM 15.8 °F 1.4 °F 5.0 °F 62% 30.11 in 10.0 mi West 13.8 mph 25.3 mph N/A   Mostly Cloudy
2:55 PM 15.8 °F -1.1 °F 3.2 °F 58% 30.11 in 9.0 mi WSW 19.6 mph 27.6 mph N/A   Overcast
3:15 PM 15.8 °F -0.6 °F 3.2 °F 58% 30.12 in 6.0 mi West 18.4 mph 27.6 mph N/A   Overcast
3:35 PM 15.8 °F -0.6 °F 3.2 °F 58% 30.13 in 7.0 mi West 18.4 mph 27.6 mph N/A   Overcast
3:55 PM 15.8 °F -1.5 °F 3.2 °F 58% 30.13 in 9.0 mi West 20.7 mph 28.8 mph N/A   Overcast
4:15 PM 15.8 °F -0.6 °F 1.4 °F 53% 30.15 in 5.0 mi West 18.4 mph 26.5 mph N/A   Overcast
4:35 PM 14.0 °F -3.0 °F 1.4 °F 57% 30.15 in 8.0 mi WSW 18.4 mph 28.8 mph N/A   Mostly Cloudy
4:55 PM 14.0 °F -3.0 °F 1.4 °F 57% 30.16 in 10.0 mi WSW 18.4 mph 25.3 mph N/A   Scattered Clouds
5:15 PM 14.0 °F -2.0 °F 1.4 °F 57% 30.16 in 10.0 mi WSW 16.1 mph 24.2 mph N/A   Partly Cloudy
5:35 PM 12.2 °F -2.5 °F 1.4 °F 62% 30.16 in 10.0 mi WSW 12.7 mph 16.1 mph N/A   Scattered Clouds
5:55 PM 12.2 °F -0.2 °F 1.4 °F 62% 30.17 in 10.0 mi WSW 9.2 mph - N/A   Partly Cloudy
6:15 PM 12.2 °F -1.0 °F 1.4 °F 62% 30.17 in 10.0 mi WSW 10.4 mph - N/A   Clear
6:35 PM 12.2 °F -0.2 °F 1.4 °F 62% 30.18 in 10.0 mi WSW 9.2 mph - N/A   Clear
6:55 PM 12.2 °F -2.5 °F 1.4 °F 62% 30.19 in 10.0 mi WSW 12.7 mph 16.1 mph N/A   Clear
7:15 PM 10.4 °F -3.3 °F 1.4 °F 67% 30.19 in 10.0 mi WSW 10.4 mph - N/A   Clear
7:35 PM 10.4 °F -2.4 °F 1.4 °F 67% 30.19 in 10.0 mi SW 9.2 mph - N/A   Clear
7:55 PM 10.4 °F -3.3 °F 3.2 °F 73% 30.20 in 10.0 mi WSW 10.4 mph - N/A   Partly Cloudy
8:15 PM 10.4 °F -2.4 °F 3.2 °F 73% 30.21 in 10.0 mi WSW 9.2 mph 16.1 mph N/A   Clear
8:35 PM 10.4 °F -0.4 °F 3.2 °F 73% 30.21 in 10.0 mi SW 6.9 mph - N/A   Clear
8:55 PM 10.4 °F -3.3 °F 1.4 °F 67% 30.21 in 10.0 mi SW 10.4 mph - N/A   Clear
9:15 PM 10.4 °F -4.1 °F 1.4 °F 67% 30.21 in 10.0 mi SW 11.5 mph - N/A   Clear
9:35 PM 10.4 °F -2.4 °F 1.4 °F 67% 30.21 in 10.0 mi WSW 9.2 mph - N/A   Clear
9:55 PM 8.6 °F -1.3 °F 3.2 °F 79% 30.21 in 10.0 mi SW 5.8 mph - N/A   Mostly Cloudy
10:15 PM 10.4 °F 0.8 °F 3.2 °F 73% 30.22 in 10.0 mi SSW 5.8 mph - N/A   Overcast
10:35 PM 10.4 °F 0.8 °F 3.2 °F 73% 30.21 in 10.0 mi SW 5.8 mph - N/A   Overcast
10:55 PM 10.4 °F -3.3 °F 5.0 °F 79% 30.21 in 10.0 mi SW 10.4 mph - N/A   Overcast
11:15 PM 10.4 °F -3.3 °F 3.2 °F 73% 30.22 in 10.0 mi SW 10.4 mph 19.6 mph N/A   Overcast
11:35 PM 10.4 °F -4.8 °F 3.2 °F 73% 30.22 in 10.0 mi WSW 12.7 mph 18.4 mph N/A   Overcast
11:55 PM 10.4 °F -4.1 °F 1.4 °F 67% 30.21 in 10.0 mi WSW 11.5 mph 19.6 mph N/A   Overcast